STARLINK-3769 (52300 NORAD) Tracking and Keplerian Element Data

This shows tracking and keplerian element data for the satellite.

Feedback or suggestion? Click here.




ElementValue
Catalog52300
NameSTARLINK-3769
Epoch Orbit130
Epoch Day167.08334491
Epoch Year2022
RAAN101.506
Inclination53.2172
Eccentricity0.0001201
Argument of Perigee98.8263
Mean Anonmoly178.7644
Mean Motion15.54988339
Decay Rate-0.0071285
L11 52300U 22041AR 22167.08334491 -.00712850 00000+0 -11416-1 0 9997
L22 52300 53.2172 101.5060 0001201 98.8263 178.7644 15.54988339 1301

Live tracking and technical data element details for STARLINK-3769 (NORAD 52300). STARLINK-3769 can be tracked NOW for your location showing map with azimuth and elevation plus other details from your city location.

Track the satellite on the map from your city or location and see movement details for azimuth, elevation, latitude, longitude, range, height, and movement on the map or in text.







IsCatalogInMostPopularTable: catalog: 52300, numindb: 1
Update: records affected: 1



GetName: 52300 STARLINK-3769

Hit Count: updated at: Sat, 25 Jun 2022 04:14:23 GMT